Location: Melbourne
(37.8666°S, 145.1333°E)
Time: 08:25:37
(UTC+11:00)

Hubble Space Telescope - Visible Passes

Search period start: 14 February 2016 00:00
Search period end: 24 February 2016 00:00
Orbit: 540 x 543 km, 28.5° (Epoch: 13 February)

Date Brightness Start Highest point End Pass type
(mag) Time Alt. Az. Time Alt. Az. Time Alt. Az.
17 Feb 3.2 05:39:18 10° N 05:40:38 11° NNE 05:41:58 10° NE visible
18 Feb 3.0 05:29:43 12° N 05:31:03 13° NNE 05:33:08 10° NE visible
19 Feb 2.8 05:20:47 15° N 05:21:29 16° NNE 05:24:01 10° NE visible
20 Feb 2.7 05:11:52 18° N 05:11:55 18° NNE 05:14:45 10° NE visible
21 Feb 2.6 05:02:57 19° NNE 05:02:57 19° NNE 05:05:23 10° NE visible
22 Feb 2.8 04:54:04 18° NNE 04:54:04 18° NNE 04:55:58 10° NE visible
23 Feb 3.0 04:45:13 16° NE 04:45:13 16° NE 04:46:29 10° NE visible
23 Feb 2.5 06:20:53 10° NW 06:23:55 19° N 06:26:59 10° NE visible
